Weather History for Goodland, KS

Change the Weather History Date:

Monday, July 8, 2013

  Actual Average Record
Temperature  
Mean Temperature 82 °F 76 °F  
Max Temperature 100 °F 90 °F 106 °F (1897)
Min Temperature 63 °F 61 °F 42 °F (1952)
Degree Days  
Heating Degree Days 0 0  
Month to date heating degree days 0 0  
Since 1 June heating degree days 31 37  
Since 1 July heating degree days 0 0  
Cooling Degree Days 17 11  
Month to date cooling degree days 87 81  
Year to date cooling degree days 433 301  
Since 1 June cooling degree days 344 260  
Growing Degree Days 32 (Base 50)    
Moisture  
Dew Point 58 °F    
Average Humidity 60    
Maximum Humidity 100    
Minimum Humidity 20    
Precipitation  
Precipitation 0.00 in 0.11 in 2.54 in (1998)
Month to date precipitation 0.01 0.87  
Year to date precipitation 7.41 10.60  
Snow  
Snow 0.00 in 0.00 in - ()
Month to date snowfall 0.0 0.0  
Since 1 June snowfall 0.0 0.0  
Since 1 July snowfall 0.0 0.0  
Snow Depth 0.00 in    
Sea Level Pressure  
Sea Level Pressure 29.87 in    
Wind  
Wind Speed 10 mph (South)    
Max Wind Speed 32 mph    
Max Gust Speed 43 mph    
Visibility 10 miles    
Events Rain    
T = Trace of Precipitation, MM = Missing Value Source: NWS Daily Summary

Daily Weather History Graph

Daily Weather History Graph

Search for Another Location

Airport:

Trip Planner

Search our weather history database for the weather conditions in past years. The results will help you decide how hot, cold, wet, or windy it might be!

Date:

Astronomy

Jul. 08, 2013 Rise Set
Actual Time 5:27 AM MDT 8:15 PM MDT
Civil Twilight 4:55 AM MDT 8:47 PM MDT
Nautical Twilight 4:15 AM MDT 9:27 PM MDT
Astronomical Twilight 3:30 AM MDT 10:13 PM MDT
Moon 5:58 AM MDT (7/8) 8:20 PM MDT (7/8)
Length of Visible Light 15h 51m
Length of Day
14h 48m
New Moon, 0% of the Moon is Illuminated
Jul 8
New Moon
Jul 15
First Quarter
Jul 22
Full
Jul 29
Last Quarter
Aug 6
New

Hourly Weather History & Observations

Time (MDT) Temp. Heat Index Dew Point Humidity Pressure Visibility Wind Dir Wind Speed Gust Speed Precip Events Conditions
12:00 AM 69.8 °F - 64.4 °F 83% 30.07 in 10.0 mi ENE 12.7 mph 25.3 mph N/A   Partly Cloudy
12:53 AM 68.0 °F - 64.9 °F 90% 29.92 in 10.0 mi East 6.9 mph - 0.00 in Rain Light Rain
1:53 AM 68.0 °F - 64.0 °F 87% 29.88 in 10.0 mi East 4.6 mph - 0.00 in   Clear
2:53 AM 66.0 °F - 64.0 °F 93% 29.89 in 10.0 mi East 3.5 mph - N/A   Clear
3:53 AM 66.0 °F - 64.0 °F 93% 29.91 in 10.0 mi East 6.9 mph - N/A   Clear
4:53 AM 64.0 °F - 62.1 °F 93% 29.91 in 10.0 mi SE 5.8 mph - N/A   Clear
5:53 AM 63.0 °F - 62.1 °F 97% 29.91 in 10.0 mi SSE 4.6 mph - N/A   Clear
6:53 AM 68.0 °F - 63.0 °F 84% 29.90 in 10.0 mi South 4.6 mph - N/A   Clear
7:53 AM 72.0 °F - 63.0 °F 73% 29.91 in 10.0 mi SSW 8.1 mph - N/A   Clear
8:53 AM 75.9 °F - 62.1 °F 62% 29.90 in 10.0 mi SSW 5.8 mph - N/A   Clear
9:53 AM 80.1 °F 81.5 °F 63.0 °F 56% 29.91 in 10.0 mi South 5.8 mph - N/A   Clear
10:53 AM 84.9 °F 85.9 °F 63.0 °F 48% 29.91 in 10.0 mi South 5.8 mph - N/A   Clear
11:53 AM 90.0 °F 90.3 °F 62.1 °F 39% 29.89 in 10.0 mi South 5.8 mph - N/A   Clear
12:53 PM 93.0 °F 92.3 °F 59.0 °F 32% 29.87 in 10.0 mi SSW 8.1 mph - N/A   Clear
1:53 PM 97.0 °F 95.0 °F 55.0 °F 24% 29.84 in 10.0 mi South 15.0 mph 23.0 mph N/A   Clear
2:53 PM 97.0 °F - 51.1 °F 21% 29.82 in 10.0 mi South 8.1 mph 17.3 mph N/A   Clear
3:53 PM 97.0 °F 94.6 °F 53.1 °F 23% 29.81 in 10.0 mi SSW 9.2 mph - N/A   Partly Cloudy
4:53 PM 97.0 °F - 50.0 °F 20% 29.80 in 10.0 mi SSW 12.7 mph - N/A   Clear
5:53 PM 98.1 °F 95.7 °F 53.1 °F 22% 29.79 in 10.0 mi SSE 8.1 mph - N/A   Clear
6:53 PM 95.0 °F - 48.0 °F 20% 29.78 in 10.0 mi SSW 10.4 mph - N/A   Clear
7:53 PM 86.0 °F 84.5 °F 55.0 °F 35% 29.81 in 9.0 mi SSW 25.3 mph 40.3 mph N/A   Clear
8:53 PM 84.0 °F 82.9 °F 55.0 °F 37% 29.82 in 10.0 mi SSW 21.9 mph 28.8 mph N/A   Clear
9:53 PM 82.9 °F 82.0 °F 55.0 °F 38% 29.83 in 10.0 mi SW 19.6 mph 25.3 mph N/A   Clear
10:53 PM 82.9 °F - 51.1 °F 33% 29.81 in 10.0 mi SW 12.7 mph - N/A   Clear
11:53 PM 77.0 °F - 52.0 °F 42% 29.83 in 10.0 mi WSW 9.2 mph - N/A   Clear